Starlink 30612

operational
NORAD ID: 58106 Int'l Des: 2023-161 Owner: SPXS Country: US Constellation: starlink
LEOCIRCULAR

About Starlink 30612

Description loading...

Live Position

Loading 3D Globe...

Upcoming Passes

Altitude History

Altitude vs Time

uPlot chart will show altitude changes over time

Two-Line Element Set

1 58106U 23161K 25301.56437230 -.00004676 00000-0 -14585-3 0 9995
2 58106 53.1603 46.2308 0001357 74.7482 285.3669 15.30200427114370
Epoch: Oct 28, 2025 • Age: 26 hours

Current Status

Altitude 478.1 km
Velocity 7.63 km/s
Sub-Earth Point 39.64°N, 82.74°W
Launch Date Oct 21, 2023
Age 2 years
Type internet

Technical Details

Classification Payload
Mass 730.00 kg
Dry Mass 700.00 kg
Total Mass 730.00 kg
Length 0.30 m
Diameter 4.10 m
Span 29.00 m
Shape Box + pan
Manufacturer SPXS
Bus Type Starlink V2M
Phase Status In Orbit
Owner/State SPXS/US

Large Constellations

Loading constellations...